Starlink 3374

operational
NORAD ID: 51112 Int'l Des: 2022-005 Owner: SPXS Country: US Constellation: starlink
LEOCIRCULAR

Starlink 3374について

説明を読み込み中...

リアルタイム位置

3D地球を読み込み中...

次回通過

高度履歴

Altitude vs Time

uPlot chart will show altitude changes over time

軌道要素

1 51112U 22005J 26035.84124693 .00001693 00000-0 12445-3 0 9990
2 51112 53.2164 76.5544 0001432 97.9079 262.2076 15.08829883223920
Epoch: Feb 4, 2026 • Age: 17 hours

現在のステータス

高度 544.0 km
速度 7.59 km/s
衛星直下点 -13.95°S, 82.93°E
打ち上げ日 Jan 19, 2022
運用期間 4 years
タイプ internet

技術仕様

分類 Payload
質量 297.00 kg
乾燥質量 275.00 kg
総質量 297.00 kg
長さ 0.20 m
直径 2.80 m
スパン 9.00 m
形状 Box + pan
製造者 SPXS
バスタイプ Starlink
フェーズステータス In Orbit
所有者/国 SPXS/US

大規模コンステレーション

Loading constellations...